Meteo Giornale » Osservazioni meteo Olanda » Rotterdam Zestienhoven

ore: 07:25 - Osservazioni Meteo Rotterdam Zestienhoven
Lat. 51° 57' N Lon. 4° 27' E Alt. -5 metri s.l.m.

coperto Europe/Amsterdam

17 °C

Coperto

Temp. 24 Ore

16 °C

22 °C

Nord/NOvest

7.4 Km/h

Dew point 13 °C

Umidità 77 %

Visibilità  10 Km

Il sole sorge alle ore 05:51

Il sole tramonta alle ore 21:46

Data e Ora Cielo e Fenomeni T °C DP °C Um. % Pres. hPa Vis. km Vento km/h
Oggi h: 07:25 coperto Coperto 17 13 77 1021 10 N/NO 7.4
Oggi h: 06:55 coperto Coperto 17 14 82 1021 10 N/NO 7.4
Oggi h: 06:25 molto_nuvoloso Molto Nuvoloso 16 14 87 1021 10 NO 7.4
Oggi h: 05:55 coperto Coperto 16 14 87 1021 10 N/NO 7.4
Oggi h: 05:25 coperto Coperto 17 14 82 1021 10 N 5.5
Oggi h: 04:55 coperto Coperto 17 14 82 1021 10 NO 7.4
Oggi h: 04:25 coperto Coperto 17 14 82 1021 10 NO 9.3
Oggi h: 03:55 coperto Coperto 17 14 82 1021 10 N/NO 11.1
Oggi h: 03:25 coperto Coperto 17 14 82 1021 10 NO 9.3
Oggi h: 02:55 coperto Coperto 17 15 88 1020 10 NO 9.3
Oggi h: 02:25 coperto Coperto 17 15 88 1020 10 NO 11.1
Oggi h: 01:55 coperto Coperto 17 15 88 1020 10 O/NO 9.3
Oggi h: 01:25 molto_nuvoloso Molto Nuvoloso 17 15 88 1020 10 NO 11.1
Oggi h: 00:55 coperto_pioggia Pioggia Debole 17 15 88 1020 10 NO 9.3
Oggi h: 00:25 molto_nuvoloso Molto Nuvoloso 17 14 82 1020 10 O/NO 9.3
Ieri h: 23:55 coperto Coperto 17 14 82 1020 10 O/NO 7.4
Ieri h: 23:25 coperto Coperto 17 14 82 1020 10 NO 11.1
Ieri h: 22:55 coperto Coperto 17 14 82 1020 10 NO 13
Ieri h: 22:25 molto_nuvoloso Molto Nuvoloso 17 14 82 1020 10 O/NO 13
Ieri h: 21:55 coperto Coperto 17 14 82 1019 10 NO 11.1
Ieri h: 21:25 coperto Coperto 17 14 82 1019 10 NO 14.8
Ieri h: 20:55 coperto Coperto 18 14 77 1019 10 NO 14.8
Ieri h: 20:25 coperto Coperto 18 14 77 1019 10 NO 13
Ieri h: 19:55 coperto Coperto 18 14 77 1019 10 NO 14.8
Ieri h: 19:25 coperto Coperto 18 14 77 1018 10 NO 18.5
Ieri h: 18:55 molto_nuvoloso Molto Nuvoloso 19 14 72 1018 10 O/NO 16.7
Ieri h: 18:25 nuvoloso Nuvoloso 20 14 68 1018 10 NO 18.5
Ieri h: 17:55 sereno Sereno 20 15 72 1017 10 NO 16.7
Ieri h: 17:25 molto_nuvoloso Molto Nuvoloso 20 15 72 1017 10 NO 14.8
Ieri h: 16:55 coperto Coperto 20 16 77 1017 10 NO 16.7
Ieri h: 16:25 molto_nuvoloso Molto Nuvoloso 20 15 72 1017 10 NO 18.5
Ieri h: 15:55 coperto Coperto 21 15 68 1016 10 NO 14.8
Ieri h: 15:25 coperto Coperto 22 15 64 1016 10 NO 14.8
Ieri h: 14:55 molto_nuvoloso Molto Nuvoloso 22 16 68 1015 10 O/NO 13
Ieri h: 14:25 coperto Coperto 21 17 77 1015 10 O 14.8
Ieri h: 13:55 coperto Coperto 21 17 77 1015 10 NO 13
Ieri h: 13:25 coperto Coperto 21 17 77 1015 10 O/NO 11.1
Ieri h: 12:55 coperto Coperto 20 17 82 1015 10 O 11.1
Ieri h: 12:25 molto_nuvoloso Molto Nuvoloso 20 17 82 1015 10 O 13
Ieri h: 11:55 coperto Coperto 20 17 82 1014 10 O 9.3
Ieri h: 11:25 coperto Coperto 19 17 88 1014 10 O 7.4
Ieri h: 10:55 coperto Coperto 19 17 88 1014 10 O/SO 9.3
Ieri h: 10:25 coperto Coperto 19 17 88 1014 10 O/NO 9.3
Ieri h: 09:55 molto_nuvoloso Molto Nuvoloso 19 17 88 1014 10 O 13
Ieri h: 09:25 coperto Coperto 19 18 93 1014 10 O 13
Ieri h: 08:55 molto_nuvoloso Molto Nuvoloso 19 17 88 1014 10 O 9.3
Ieri h: 08:25 coperto_pioggia Pioggia Debole 19 17 88 1014 7 O/SO 9.3
Ieri h: 07:55 molto_nuvoloso Molto Nuvoloso 19 17 88 1014 10 O/SO 11.1